This demonstration page uses our WeatherBlox Daily Observations layout. Learn more.

Left ArrowRight Arrow

44.89941, -97.11507

Hourly Observations for January 28, 2021

Temp ( °F °C ) Dew Point ( °F °C ) Humidity (%) Winds ( mph kmh ) Pressure ( in mb ) Visibility ( mi km ) Precip ( " mm )
12:53 am 00:53 Clear 11 -11.7 6 -14.4 81 81 SSE 16 26 30.50 1033 10 16 0.00 0.00
1:45 am 01:45 Partly Cloudy 10 -12.2 6 -14.4 84 84 SSE 15 24 30.54 1034 10 16 0.00 0.00
1:53 am 01:53 Mostly Cloudy 11 -11.7 6 -14.4 81 81 SSE 16 26 30.47 1032 10 16 0.00 0.00
2:53 am 02:53 Cloudy with Mist and Fog 13 -10.6 10 -12.2 88 88 SSE 23 37 30.45 1031 5 8 0.00 0.00
3:53 am 03:53 Cloudy with Mist and Fog 13 -10.6 11 -11.7 92 92 SSE 16 26 30.45 1031 4 6 0.00 0.00
4:53 am 04:53 Cloudy with Mist and Fog 14 -10 12 -11.1 92 92 SSE 22 35 30.42 1030 4 6 0.00 0.00
5:53 am 05:53 Cloudy with Mist and Fog 14 -10 12 -11.1 92 92 SSE 23 37 30.41 1030 5 8 0.00 0.00
6:53 am 06:53 Mostly Cloudy with Mist and Fog 13 -10.6 11 -11.7 92 92 SSE 16 26 30.41 1030 6 10 0.00 0.00
7:01 am 07:01 Partly Cloudy with Mist and Fog 13 -10.6 11 -11.7 92 92 SSE 18 30 30.47 1032 6 10 0.00 0.00
7:53 am 07:53 Partly Cloudy with Mist and Fog 14 -10 11 -11.7 88 88 SSE 16 26 30.40 1030 4 6 0.00 0.00
8:06 am 08:06 Mostly Cloudy with Mist and Fog 14 -10 11 -11.7 88 88 SSE 15 24 30.46 1031 4 6 0.00 0.00
8:14 am 08:14 Mostly Cloudy with Mist and Fog 14 -10 11 -11.7 88 88 SSE 15 24 30.46 1031 4 6 0.00 0.00
8:23 am 08:23 Partly Cloudy with Mist and Fog 14 -10 11 -11.7 88 88 SSE 15 24 30.46 1031 4 6 0.00 0.00
8:53 am 08:53 Sunny with Mist and Fog 14 -10 12 -11.1 92 92 SSE 15 24 30.39 1029 4 6 0.00 0.00
9:53 am 09:53 Sunny with Mist and Fog 16 -8.9 13 -10.6 88 88 SSE 21 33 30.38 1029 4 6 0.00 0.00
10:53 am 10:53 Sunny 18 -7.8 13 -10.6 81 81 SSE 23 37 30.37 1028 7 11 0.00 0.00
11:22 am 11:22 Mostly Cloudy with Haze 19 -7.2 14 -10 81 81 S 20 31 30.39 1029 6 10 0.00 0.00
11:53 am 11:53 Cloudy with Mist and Fog 19 -7.2 15 -9.4 84 84 S 21 33 30.35 1028 4 6 0.00 0.00
12:24 pm 12:24 Cloudy with Haze 20 -6.7 15 -9.4 81 81 S 17 28 30.37 1028 3 4 0.00 0.00
12:38 pm 12:38 Cloudy with Light Snow 20 -6.7 16 -8.9 85 85 S 17 28 30.36 1028 2 3 0.00 0.00
12:53 pm 12:53 Cloudy with Light Snow 20 -6.7 16 -8.9 85 85 S 17 28 30.33 1027 1 2 0.00 0.00
1:19 pm 13:19 Cloudy with Light Snow 21 -6.1 16 -8.9 81 81 S 18 30 30.35 1028 2 3 0.00 0.00
1:38 pm 13:38 Cloudy with Haze 21 -6.1 16 -8.9 81 81 S 18 30 30.34 1027 3 5 0.00 0.00
1:53 pm 13:53 Cloudy with Haze 21 -6.1 16 -8.9 81 81 S 16 26 30.30 1026 5 8 0.00 0.00
2:53 pm 14:53 Cloudy with Mist and Fog 20 -6.7 16 -8.9 85 85 S 20 31 30.29 1026 6 10 0.00 0.00
3:28 pm 15:28 Cloudy with Haze 21 -6.1 16 -8.9 81 81 S 14 22 30.33 1027 3 4 0.00 0.00
3:36 pm 15:36 Cloudy with Haze 21 -6.1 16 -8.9 81 81 S 13 20 30.33 1027 5 8 0.00 0.00
3:50 pm 15:50 Cloudy with Mist and Fog 21 -6 18 -8 86 86 S 9 15 30.33 1027 2 3 0.00 0.00
3:53 pm 15:53 Cloudy with Mist and Fog 21 -6.1 17 -8.3 85 85 S 15 24 30.30 1026 2 3 0.00 0.00
4:02 pm 16:02 Cloudy with Haze 21 -6.1 16 -8.9 81 81 S 12 19 30.34 1027 6 10 0.00 0.00
4:53 pm 16:53 Cloudy with Haze 21 -6.1 16 -8.9 81 81 S 13 20 30.31 1026 6 10 0.00 0.00
5:53 pm 17:53 Cloudy 20 -6.7 16 -8.9 85 85 S 8 13 30.30 1026 7 11 0.00 0.00
6:53 pm 18:53 Cloudy 20 -6.7 16 -8.9 85 85 S 10 17 30.29 1026 7 11 0.00 0.00
7:53 pm 19:53 Cloudy 20 -6.7 16 -8.9 85 85 S 10 17 30.30 1026 7 11 0.00 0.00
8:53 pm 20:53 Cloudy with Mist and Fog 20 -6.7 17 -8.3 89 89 S 10 17 30.28 1026 6 10 0.00 0.00
9:50 pm 21:50 Cloudy with Mist and Fog 19 -7 18 -8 93 93 S 13 20 30.31 1026 6 10 0.00 0.00
9:53 pm 21:53 Cloudy with Mist and Fog 20 -6.7 17 -8.3 89 89 S 13 20 30.27 1025 6 10 0.00 0.00
10:53 pm 22:53 Cloudy with Mist and Fog 19 -7.2 17 -8.3 92 92 S 10 17 30.25 1024 5 8 0.00 0.00
11:53 pm 23:53 Cloudy with Mist and Fog 19 -7.2 17 -8.3 92 92 SE 10 17 30.24 1024 5 8 0.00 0.00

Powered by AerisWeather